This demonstration page uses our WeatherBlox Daily Observations layout. Learn more.

36.19886, -115.1175

Hourly Observations for July 9, 2018

Temp ( °F °C ) Dew Point ( °F °C ) Humidity (%) Winds ( mph kmh ) Pressure ( in mb ) Visibility ( mi km ) Precip ( " mm )
12:53 am 00:53 Clear 93 33.9 52 11.1 25 25 E 9 15 29.83 1010 10 16.09344 0 0
1:53 am 01:53 Clear 94 34.4 52 11.1 24 24 SSE 6 9 29.83 1010 10 16.09344 0 0
2:53 am 02:53 Clear 93 33.9 52 11.1 25 25 N 3 6 29.85 1011 10 16.09344 0 0
3:53 am 03:53 Clear 93 33.9 53 11.7 26 26 N 3 6 29.85 1011 10 16.09344 0 0
4:53 am 04:53 Clear 91 32.8 57 13.9 32 32 ESE 6 9 29.88 1012 10 16.09344 0 0
5:53 am 05:53 Mostly Cloudy 91 32.8 56 13.3 31 31 E 7 11 29.91 1013 10 16.09344 0 0
6:53 am 06:53 Mostly Sunny 92 33.3 57 13.9 31 31 SE 10 17 29.91 1013 10 16.09344 0 0
7:53 am 07:53 Sunny 91 32.8 59 15 34 34 E 7 11 29.94 1014 10 16.09344 0 0
8:53 am 08:53 Sunny 92 33.3 59 15 33 33 N 3 6 29.94 1014 10 16.09344 0 0
9:53 am 09:53 Sunny 96 35.6 58 14.4 28 28 SSE 6 9 29.94 1014 10 16.09344 0 0
10:53 am 10:53 Sunny 99 37.2 55 12.8 23 23 SSE 6 9 29.94 1014 10 16.09344 0 0
11:53 am 11:53 Sunny 99 37.2 58 14.4 26 26 SE 9 15 29.91 1013 10 16.09344 0 0
12:53 pm 12:53 Sunny 102 38.9 58 14.4 23 23 SE 10 17 29.88 1012 10 16.09344 0 0
1:24 pm 13:24 Sunny with Nearby Thunderstorms 102 38.9 56 13.3 22 22 N 7 11 29.74 1007 10 16.09344 0 0
1:41 pm 13:41 Sunny with Thunderstorms 104 40 57 13.9 21 21 N 6 9 29.74 1007 10 16.09344 0 0
1:53 pm 13:53 Sunny with Nearby Thunderstorms 103 39.4 57 13.9 22 22 SSE 12 19 29.85 1011 10 16.09344 0 0
2:19 pm 14:19 Sunny 104 40 57 13.9 21 21 SSE 8 13 29.71 1006 10 16.09344 0 0
2:53 pm 14:53 Sunny 105 40.6 57 13.9 20 20 N 5 7 29.83 1010 10 16.09344 0 0
3:11 pm 15:11 Sunny with Nearby Thunderstorms 105 40.6 56 13.3 20 20 S 7 11 29.65 1004 10 16.09344 0 0
3:53 pm 15:53 Mostly Sunny 105 40.6 55 12.8 19 19 SSW 14 22 29.83 1010 10 16.09344 0 0
4:53 pm 16:53 Sunny 105 40.6 54 12.2 18 18 SW 15 24 29.8 1009 10 16.09344 0 0
5:53 pm 17:53 Sunny 104 40 53 11.7 18 18 WSW 6 9 29.77 1008 10 16.09344 0 0
6:53 pm 18:53 Sunny 103 39.4 53 11.7 19 19 S 5 7 29.8 1009 10 16.09344 0 0
7:53 pm 19:53 Sunny 103 39.4 52 11.1 18 18 S 5 7 29.8 1009 10 16.09344 0 0
8:53 pm 20:53 Clear 100 37.8 53 11.7 21 21 S 7 11 29.8 1009 10 16.09344 0 0
9:22 pm 21:22 Mostly Cloudy 94 34.4 60 15.6 32 32 ESE 28 44 29.77 1008 10 16.09344 0 0
9:53 pm 21:53 Mostly Cloudy 83 28.3 66 18.9 57 57 E 28 44 29.97 1015 10 16.09344 0 0
10:53 pm 22:53 Mostly Cloudy with Light Rain 77 25 72 22.2 85 85 W 9 15 30.09 1019 10 16.09344 0 0
11:53 pm 23:53 Mostly Cloudy with Light Rain 76 24.4 69 20.6 79 79 SSW 7 11 30.12 1020 10 16.09344 0 0

Powered by AerisWeather